TimeCDT,TemperatureF,Dew PointF,Humidity,Sea Level PressureIn,VisibilityMPH,Wind Direction,Wind SpeedMPH,Gust SpeedMPH,PrecipitationIn,Events,Conditions,WindDirDegrees,DateUTC
12:53 AM,75.9,66.9,74,29.79,10.0,North,3.5,-,N/A,,Clear,360,2013-07-01 05:53:00
1:53 AM,73.0,66.0,79,29.79,10.0,NNW,6.9,-,N/A,,Clear,340,2013-07-01 06:53:00
2:53 AM,73.9,66.0,76,29.79,10.0,North,3.5,-,N/A,,Clear,350,2013-07-01 07:53:00
3:53 AM,72.0,64.9,78,29.80,10.0,NNW,5.8,-,N/A,,Clear,340,2013-07-01 08:53:00
4:53 AM,71.1,64.9,81,29.81,10.0,NNW,4.6,-,N/A,,Clear,340,2013-07-01 09:53:00
5:53 AM,69.1,64.9,87,29.83,10.0,NNW,4.6,-,N/A,,Clear,340,2013-07-01 10:53:00
6:53 AM,72.0,64.9,78,29.83,10.0,NNW,5.8,-,N/A,,Clear,340,2013-07-01 11:53:00
7:53 AM,75.9,64.9,69,29.84,10.0,North,6.9,-,N/A,,Clear,360,2013-07-01 12:53:00
8:53 AM,81.0,64.9,58,29.85,10.0,NNW,4.6,-,N/A,,Clear,340,2013-07-01 13:53:00
9:53 AM,82.9,64.9,54,29.86,10.0,NNW,6.9,-,N/A,,Clear,330,2013-07-01 14:53:00
10:53 AM,84.9,64.9,51,29.87,-9999.0,Variable,4.6,-,N/A,,Unknown,0,2013-07-01 15:53:00
11:53 AM,87.1,63.0,44,29.86,10.0,NW,8.1,-,N/A,,Clear,310,2013-07-01 16:53:00
12:53 PM,88.0,62.1,42,29.85,10.0,WNW,9.2,16.1,N/A,,Clear,290,2013-07-01 17:53:00
1:53 PM,89.1,62.1,40,29.83,10.0,Variable,5.8,18.4,N/A,,Scattered Clouds,0,2013-07-01 18:53:00
2:53 PM,91.0,63.0,39,29.82,10.0,NW,12.7,18.4,N/A,,Scattered Clouds,310,2013-07-01 19:53:00
3:53 PM,90.0,63.0,40,29.83,10.0,WNW,9.2,-,N/A,,Clear,300,2013-07-01 20:53:00
4:53 PM,90.0,61.0,38,29.83,10.0,NW,9.2,-,N/A,,Partly Cloudy,310,2013-07-01 21:53:00
5:53 PM,89.1,63.0,42,29.83,10.0,NNW,8.1,-,N/A,,Partly Cloudy,340,2013-07-01 22:53:00
6:53 PM,87.1,63.0,44,29.85,10.0,NW,6.9,-,N/A,,Clear,320,2013-07-01 23:53:00
7:53 PM,82.9,64.9,54,29.87,10.0,NW,3.5,-,N/A,,Clear,320,2013-07-02 00:53:00
8:53 PM,80.1,66.9,64,29.88,10.0,Calm,Calm,-,N/A,,Clear,0,2013-07-02 01:53:00
9:53 PM,77.0,66.9,71,29.89,10.0,Calm,Calm,-,N/A,,Clear,0,2013-07-02 02:53:00
10:53 PM,75.9,66.9,74,29.90,10.0,Calm,Calm,-,N/A,,Clear,0,2013-07-02 03:53:00
11:53 PM,75.0,68.0,79,29.91,10.0,Calm,Calm,-,N/A,,Clear,0,2013-07-02 04:53:00